ACRIMSAT

Satellite information

Favourite Embed

Satellite Type and Status

PAYLOADIN ORBIT

Key statistics

Satellite ACRIMSAT at a glance.

Uptime

9442

Days in orbit

Revolutions

≈ 14.7

Per day

Orbit

SSO

Sun Synchronous Orbit

Inclination

98.3

Latest

Satellite identification and parameters

Extended collection of information and parameters for ACRIMSAT.

Object identification

Identified? True

Debris? False

Object name: ACRIMSAT

International designator: 1999-070B

Object number (NORAD): 26033

Object ID (CCSDS): 26033

Country: UNITED STATES OF AMERICA (US)

Current information (Y/N): Y

RCS size: MEDIUM

Orbital parameters

Period: 98.257 minutes

Inclination: 98.3134 deg

SMA: 7053.468 km

Apoapsis: 694.766 km

Periapsis: 655.9 km

RAAN: 76.718 deg

Eccentricy: 0.00275516

Argument of periapsis: 117.8207 deg

Mean anomaly: 242.5792 deg

Mean motion: 14.6554349 rev/day

Mean motion (dot): 0.00001075 rev/day2

B* drag term: 0.0002065304 1/REarth

Two-line elements (TLE)

Creation date: Oct. 27, 2025, 2:46 a.m.

Reference frame: TEME

Reference center: EARTH

Epoch: Oct. 26, 2025, 9:19 p.m. UTC

TLE line 0: 0 ACRIMSAT

TLE line 1: 1 26033U 99070B 25299.88825287 .00001075 00000-0 20653-3 0 9996

TLE line 2: 2 26033 98.3134 76.7180 0027552 117.8207 242.5792 14.65543490378718

Live tracking on map

Real-time ground track for satellite ACRIMSAT.

In-orbit conjunctions

A list of the most updated potential collisions computed for object ACRIMSAT.

Target Orbit TCA Probability of collision Miss distance Type
CZ-4 DEB SSO 2024-11-10 21:06:08 0.0008575405 124.0 (m) DEBRIS

Associated space launch

The KOMPSAT 1 (Korean Multi-purpose Satellite 1) Earth observation satellite was developed jointly by KARI and TRW. ACRIMSat (Active Cavity Radiometric Irradiance Monitor Satellite) was a satellite to ascertain the extent of solar radiation variability.

ACRIMSAT was lifted into orbit during the mission ‘Taurus 2110 | Arirang-1 & ACRIMSat’, on board a Minotaur-C 2110 space rocket.

The launch took place on Dec. 21, 1999, 7:13 a.m. from Space Launch Complex 576E.

For more information about the launch, click the button.

Launch to space Taurus 2110 | Arirang-1 & ACRIMSat
Taurus 2110 | Arirang-1 & ACRIMSat

Agency: N/A

Status: Launch Successful

Launch date: Dec. 21, 1999, 7:13 a.m. UTC

Rocket: Minotaur-C 2110

Launch pad: Space Launch Complex 576E

Location: Vandenberg SFB, CA, USA

...

Latest news about this satellite

There are no fresh news available about this satellite. Check back as we update our databases every day.


Newsletter sign-up

Weekly statistics, charts and insights to help you stay on top of the space industry.